DBair |  Recent searches |  Recent views |  Contact us |  Sign In
DBair, not only an aviation database

Prince Abdul Majeed Airport, Al-Ula, Saudi Arabia

METAR

2014/11/27 10:00
OEAO 271000Z 27004KT CAVOK 20/00 Q1018

TAF

2014/11/24 06:00
TAF OEAO 240430Z 2406/2420 22012KT 8000 FEW040
Name:Prince Abdul Majeed Airport
City:Al-Ula
Country:Saudi Arabia
IATA/FAA:ULH
ICAO:OEAO
Latitude:26.6367180
Longitude:37.9080180
Altitude:2047 (in feet)
Timezone: 3 (hours offset from UTC)
DST:N (None)
Keywords: prince abdul majeed airport, al-ula, saudi arabia, ulh, oeao, 26.636718, 37.908018,

Map:

Full ICAO list |  Full IATA list |  Full airport list